This is the latest recevied weather packets stored in our database for station/object KE8URB. If no packets are shown the sender has not sent any weather packets the latest 10 day(s).
| Time | Temp. | Humidity | Pressure | Rain* | Wind** | Luminosity | Snow |
|---|---|---|---|---|---|---|---|
| 1788122185 | 26.11° C | 75% | 1019.9 hPa | 0 mm | - | 69 W/m² | - |
| 1788121885 | 26.11° C | 75% | 1020 hPa | 0 mm | - | 74 W/m² | - |
| 1788121585 | 26.11° C | 72% | 1020.1 hPa | 0 mm | - | 65 W/m² | - |
| 1788121280 | 26.11° C | 72% | 1020.1 hPa | 0 mm | - | 49 W/m² | - |
| 1788120979 | 26.11° C | 71% | 1020.1 hPa | 0 mm | - | 52 W/m² | - |
| 1788120675 | 26.11° C | 70% | 1020.3 hPa | 0 mm | - | 56 W/m² | - |
| 1788120370 | 26.11° C | 69% | 1020.5 hPa | 0 mm | - | 69 W/m² | - |
| 1788120069 | 26.67° C | 69% | 1020.4 hPa | 0 mm | - | 86 W/m² | - |
| 1788119765 | 26.11° C | 71% | 1020.5 hPa | 0 mm | - | 101 W/m² | - |
| 1788119463 | 26.11° C | 70% | 1020.4 hPa | 0 mm | - | 96 W/m² | - |
| 1788119163 | 26.67° C | 70% | 1020.5 hPa | 0 mm | - | 94 W/m² | - |
| 1788118857 | 26.67° C | 72% | 1020.7 hPa | 0 mm | - | 100 W/m² | - |
| 1788118556 | 26.67° C | 70% | 1020.7 hPa | 0 mm | - | 116 W/m² | - |
| 1788118252 | 26.67° C | 71% | 1021 hPa | 0 mm | - | 118 W/m² | - |
| 1788117948 | 26.67° C | 70% | 1021.1 hPa | 0 mm | - | 134 W/m² | - |
| 1788117647 | 27.22° C | 71% | 1021.2 hPa | 0 mm | - | 173 W/m² | - |
| 1788117342 | 26.67° C | 71% | 1021.2 hPa | 0 mm | - | 392 W/m² | - |
| 1788117038 | 26.67° C | 72% | 1021.2 hPa | 0 mm | - | 209 W/m² | - |
| 1788116733 | 27.22° C | 69% | 1021.4 hPa | 0 mm | - | 203 W/m² | - |
| 1788116428 | 26.67° C | 70% | 1021.3 hPa | 0 mm | - | 323 W/m² | - |
| 1788116122 | 26.67° C | 72% | 1021.3 hPa | 0 mm | - | 151 W/m² | - |
| 1788115818 | 26.67° C | 70% | 1021.5 hPa | 0 mm | - | 111 W/m² | - |
| 1788115516 | 26.67° C | 69% | 1021.4 hPa | 0 mm | - | 117 W/m² | - |
| 1788115211 | 26.67° C | 70% | 1021.4 hPa | 0 mm | - | 127 W/m² | - |
| 1788114911 | 26.67° C | 73% | 1021.4 hPa | 0 mm | - | 117 W/m² | - |
* Rain latest hour (hover to see other rain measurements)
** Current wind speed in m/s (hover to see current wind gust speed)